Time,TemperatureF,DewpointF,PressureIn,WindDirection,WindDirectionDegrees,WindSpeedMPH,WindSpeedGustMPH,Humidity,HourlyPrecipIn,Conditions,Clouds,dailyrainin,SoftwareType,DateUTC
2013-06-15 00:02:00,56.0,-99.9,-100.00,SE,135,4.0,4.0,-999,-99.99,,,-99.99,,2013-06-15 07:02:00,
2013-06-15 00:11:00,56.0,-99.9,-100.00,SE,135,3.0,4.0,-999,-99.99,,,-99.99,,2013-06-15 07:11:00,
2013-06-15 00:23:00,55.0,-99.9,-100.00,SE,135,4.0,5.0,-999,-99.99,,,-99.99,,2013-06-15 07:23:00,
2013-06-15 00:33:00,55.0,-99.9,-100.00,SE,135,4.0,5.0,-999,-99.99,,,-99.99,,2013-06-15 07:33:00,
2013-06-15 00:43:00,55.0,-99.9,-100.00,SE,135,6.0,7.0,-999,-99.99,,,-99.99,,2013-06-15 07:43:00,
2013-06-15 00:54:00,55.0,-99.9,-100.00,SE,135,6.0,7.0,-999,-99.99,,,-99.99,,2013-06-15 07:54:00,
2013-06-15 01:03:00,54.0,-99.9,-100.00,SE,135,3.0,6.0,-999,-99.99,,,-99.99,,2013-06-15 08:03:00,
2013-06-15 01:12:00,54.0,-99.9,-100.00,SE,135,3.0,6.0,-999,-99.99,,,-99.99,,2013-06-15 08:12:00,
2013-06-15 01:22:00,54.0,-99.9,-100.00,SE,135,3.0,6.0,-999,-99.99,,,-99.99,,2013-06-15 08:22:00,
2013-06-15 01:34:00,54.0,-99.9,-100.00,SE,135,3.0,6.0,-999,-99.99,,,-99.99,,2013-06-15 08:34:00,
2013-06-15 01:43:00,54.0,-99.9,-100.00,SE,135,3.0,4.0,-999,-99.99,,,-99.99,,2013-06-15 08:43:00,
2013-06-15 01:53:00,54.0,-99.9,-100.00,SE,135,3.0,4.0,-999,-99.99,,,-99.99,,2013-06-15 08:53:00,
2013-06-15 02:02:00,54.0,-99.9,-100.00,SE,135,3.0,4.0,-999,-99.99,,,-99.99,,2013-06-15 09:02:00,
2013-06-15 02:12:00,54.0,-99.9,-100.00,SE,135,3.0,4.0,-999,-99.99,,,-99.99,,2013-06-15 09:12:00,
2013-06-15 02:22:00,53.0,-99.9,-100.00,SE,135,4.0,4.0,-999,-99.99,,,-99.99,,2013-06-15 09:22:00,
2013-06-15 02:33:00,53.0,-99.9,-100.00,SE,135,4.0,4.0,-999,-99.99,,,-99.99,,2013-06-15 09:33:00,
2013-06-15 02:43:00,53.0,-99.9,-100.00,SE,135,4.0,5.0,-999,-99.99,,,-99.99,,2013-06-15 09:43:00,
2013-06-15 02:53:00,53.0,-99.9,-100.00,SE,135,3.0,5.0,-999,-99.99,,,-99.99,,2013-06-15 09:53:00,
2013-06-15 03:02:00,52.0,-99.9,-100.00,SE,135,4.0,4.0,-999,-99.99,,,-99.99,,2013-06-15 10:02:00,
2013-06-15 03:12:00,52.0,-99.9,-100.00,SE,135,4.0,4.0,-999,-99.99,,,-99.99,,2013-06-15 10:12:00,
2013-06-15 03:23:00,52.0,-99.9,-100.00,SE,135,6.0,7.0,-999,-99.99,,,-99.99,,2013-06-15 10:23:00,
2013-06-15 03:34:00,52.0,-99.9,-100.00,SE,135,6.0,7.0,-999,-99.99,,,-99.99,,2013-06-15 10:34:00,
2013-06-15 03:44:00,52.0,-99.9,-100.00,SE,135,6.0,8.0,-999,-99.99,,,-99.99,,2013-06-15 10:44:00,
2013-06-15 03:53:00,52.0,-99.9,-100.00,SE,135,4.0,8.0,-999,-99.99,,,-99.99,,2013-06-15 10:53:00,
2013-06-15 04:02:00,52.0,-99.9,-100.00,SE,135,6.0,7.0,-999,-99.99,,,-99.99,,2013-06-15 11:02:00,
2013-06-15 04:12:00,52.0,-99.9,-100.00,SE,135,6.0,7.0,-999,-99.99,,,-99.99,,2013-06-15 11:12:00,
2013-06-15 04:22:00,52.0,-99.9,-100.00,SE,135,6.0,6.0,-999,-99.99,,,-99.99,,2013-06-15 11:22:00,
2013-06-15 04:33:00,52.0,-99.9,-100.00,SE,135,6.0,6.0,-999,-99.99,,,-99.99,,2013-06-15 11:33:00,
2013-06-15 04:43:00,52.0,-99.9,-100.00,SE,135,6.0,6.0,-999,-99.99,,,-99.99,,2013-06-15 11:43:00,
2013-06-15 04:53:00,52.0,-99.9,-100.00,SE,135,4.0,6.0,-999,-99.99,,,-99.99,,2013-06-15 11:53:00,
2013-06-15 05:02:00,51.0,-99.9,-100.00,SE,135,4.0,6.0,-999,-99.99,,,-99.99,,2013-06-15 12:02:00,
2013-06-15 05:12:00,51.0,-99.9,-100.00,SE,135,4.0,6.0,-999,-99.99,,,-99.99,,2013-06-15 12:12:00,
2013-06-15 05:23:00,51.0,-99.9,-100.00,SE,135,5.0,6.0,-999,-99.99,,,-99.99,,2013-06-15 12:23:00,
2013-06-15 05:33:00,51.0,-99.9,-100.00,SE,135,6.0,8.0,-999,-99.99,,,-99.99,,2013-06-15 12:33:00,
2013-06-15 05:44:00,51.0,-99.9,-100.00,SE,135,6.0,8.0,-999,-99.99,,,-99.99,,2013-06-15 12:44:00,
2013-06-15 05:53:00,51.0,-99.9,-100.00,South,180,6.0,8.0,-999,-99.99,,,-99.99,,2013-06-15 12:53:00,
2013-06-15 06:02:00,51.0,-99.9,-100.00,South,180,6.0,8.0,-999,-99.99,,,-99.99,,2013-06-15 13:02:00,
2013-06-15 06:12:00,51.0,-99.9,-100.00,South,180,2.0,8.0,-999,-99.99,,,-99.99,,2013-06-15 13:12:00,
2013-06-15 06:22:00,51.0,-99.9,-100.00,SE,135,4.0,6.0,-999,-99.99,,,-99.99,,2013-06-15 13:22:00,
2013-06-15 06:33:00,51.0,-99.9,-100.00,SE,135,4.0,6.0,-999,-99.99,,,-99.99,,2013-06-15 13:33:00,
2013-06-15 06:44:00,50.0,-99.9,-100.00,South,180,3.0,6.0,-999,-99.99,,,-99.99,,2013-06-15 13:44:00,
2013-06-15 06:53:00,51.0,-99.9,-100.00,South,180,6.0,7.0,-999,-99.99,,,-99.99,,2013-06-15 13:53:00,
2013-06-15 07:02:00,51.0,-99.9,-100.00,South,180,6.0,7.0,-999,-99.99,,,-99.99,,2013-06-15 14:02:00,
2013-06-15 07:12:00,50.0,-99.9,-100.00,SE,135,7.0,8.0,-999,-99.99,,,-99.99,,2013-06-15 14:12:00,
2013-06-15 07:23:00,51.0,-99.9,-100.00,South,180,4.0,8.0,-999,-99.99,,,-99.99,,2013-06-15 14:23:00,
2013-06-15 07:34:00,52.0,-99.9,-100.00,South,180,3.0,7.0,-999,-99.99,,,-99.99,,2013-06-15 14:34:00,
2013-06-15 07:43:00,52.0,-99.9,-100.00,South,180,3.0,7.0,-999,-99.99,,,-99.99,,2013-06-15 14:43:00,
2013-06-15 07:54:00,53.0,-99.9,-100.00,SW,225,2.0,5.0,-999,-99.99,,,-99.99,,2013-06-15 14:54:00,
2013-06-15 08:02:00,53.0,-99.9,-100.00,SW,225,2.0,5.0,-999,-99.99,,,-99.99,,2013-06-15 15:02:00,
2013-06-15 08:12:00,52.0,-99.9,-100.00,West,270,8.0,9.0,-999,-99.99,,,-99.99,,2013-06-15 15:12:00,
2013-06-15 08:22:00,52.0,-99.9,-100.00,SW,225,10.0,13.0,-999,-99.99,,,-99.99,,2013-06-15 15:22:00,
2013-06-15 08:33:00,52.0,-99.9,-100.00,SW,225,10.0,13.0,-999,-99.99,,,-99.99,,2013-06-15 15:33:00,
2013-06-15 08:43:00,53.0,-99.9,-100.00,West,270,7.0,14.0,-999,-99.99,,,-99.99,,2013-06-15 15:43:00,
2013-06-15 08:53:00,54.0,-99.9,-100.00,SW,225,8.0,14.0,-999,-99.99,,,-99.99,,2013-06-15 15:53:00,
2013-06-15 09:02:00,54.0,-99.9,-100.00,SW,225,8.0,14.0,-999,-99.99,,,-99.99,,2013-06-15 16:02:00,
2013-06-15 09:12:00,54.0,-99.9,-100.00,West,270,8.0,10.0,-999,-99.99,,,-99.99,,2013-06-15 16:12:00,
2013-06-15 09:22:00,54.0,-99.9,-100.00,SW,225,6.0,11.0,-999,-99.99,,,-99.99,,2013-06-15 16:22:00,
2013-06-15 09:33:00,54.0,-99.9,-100.00,SW,225,6.0,11.0,-999,-99.99,,,-99.99,,2013-06-15 16:33:00,
2013-06-15 09:43:00,55.0,-99.9,-100.00,SW,225,5.0,11.0,-999,-99.99,,,-99.99,,2013-06-15 16:43:00,
2013-06-15 09:54:00,56.0,-99.9,-100.00,West,270,6.0,8.0,-999,-99.99,,,-99.99,,2013-06-15 16:54:00,
2013-06-15 10:02:00,56.0,-99.9,-100.00,West,270,6.0,8.0,-999,-99.99,,,-99.99,,2013-06-15 17:02:00,
2013-06-15 10:12:00,56.0,-99.9,-100.00,West,270,7.0,9.0,-999,-99.99,,,-99.99,,2013-06-15 17:12:00,
2013-06-15 10:22:00,54.0,-99.9,-100.00,West,270,9.0,10.0,-999,-99.99,,,-99.99,,2013-06-15 17:22:00,
2013-06-15 10:32:00,54.0,-99.9,-100.00,West,270,9.0,10.0,-999,-99.99,,,-99.99,,2013-06-15 17:32:00,
2013-06-15 10:43:00,53.0,-99.9,-100.00,West,270,11.0,11.0,-999,-99.99,,,-99.99,,2013-06-15 17:43:00,
2013-06-15 10:52:00,54.0,-99.9,-100.00,West,270,10.0,12.0,-999,-99.99,,,-99.99,,2013-06-15 17:52:00,
2013-06-15 11:02:00,54.0,-99.9,-100.00,West,270,10.0,12.0,-999,-99.99,,,-99.99,,2013-06-15 18:02:00,
2013-06-15 11:12:00,55.0,-99.9,-100.00,West,270,11.0,12.0,-999,-99.99,,,-99.99,,2013-06-15 18:12:00,
2013-06-15 11:22:00,55.0,-99.9,-100.00,West,270,13.0,14.0,-999,-99.99,,,-99.99,,2013-06-15 18:22:00,
2013-06-15 11:33:00,56.0,-99.9,-100.00,West,270,12.0,14.0,-999,-99.99,,,-99.99,,2013-06-15 18:33:00,
2013-06-15 11:43:00,56.0,-99.9,-100.00,West,270,12.0,14.0,-999,-99.99,,,-99.99,,2013-06-15 18:43:00,
2013-06-15 11:53:00,56.0,-99.9,-100.00,West,270,16.0,16.0,-999,-99.99,,,-99.99,,2013-06-15 18:53:00,
2013-06-15 12:02:00,58.0,-99.9,-100.00,West,270,9.0,16.0,-999,-99.99,,,-99.99,,2013-06-15 19:02:00,
2013-06-15 12:12:00,58.0,-99.9,-100.00,West,270,9.0,16.0,-999,-99.99,,,-99.99,,2013-06-15 19:12:00,
2013-06-15 12:22:00,58.0,-99.9,-100.00,West,270,12.0,16.0,-999,-99.99,,,-99.99,,2013-06-15 19:22:00,
2013-06-15 12:33:00,59.0,-99.9,-100.00,West,270,11.0,13.0,-999,-99.99,,,-99.99,,2013-06-15 19:33:00,
2013-06-15 12:43:00,59.0,-99.9,-100.00,West,270,11.0,13.0,-999,-99.99,,,-99.99,,2013-06-15 19:43:00,
2013-06-15 12:53:00,59.0,-99.9,-100.00,West,270,14.0,15.0,-999,-99.99,,,-99.99,,2013-06-15 19:53:00,
2013-06-15 13:02:00,59.0,-99.9,-100.00,West,270,14.0,15.0,-999,-99.99,,,-99.99,,2013-06-15 20:02:00,
2013-06-15 13:12:00,59.0,-99.9,-100.00,West,270,14.0,15.0,-999,-99.99,,,-99.99,,2013-06-15 20:12:00,
2013-06-15 13:22:00,57.0,-99.9,-100.00,West,270,12.0,17.0,-999,-99.99,,,-99.99,,2013-06-15 20:22:00,
2013-06-15 13:34:00,57.0,-99.9,-100.00,West,270,12.0,17.0,-999,-99.99,,,-99.99,,2013-06-15 20:34:00,
2013-06-15 13:43:00,58.0,-99.9,-100.00,West,270,13.0,17.0,-999,-99.99,,,-99.99,,2013-06-15 20:43:00,
2013-06-15 13:53:00,57.0,-99.9,-100.00,West,270,14.0,16.0,-999,-99.99,,,-99.99,,2013-06-15 20:53:00,
2013-06-15 14:02:00,57.0,-99.9,-100.00,West,270,13.0,16.0,-999,-99.99,,,-99.99,,2013-06-15 21:02:00,
2013-06-15 14:12:00,57.0,-99.9,-100.00,West,270,13.0,16.0,-999,-99.99,,,-99.99,,2013-06-15 21:12:00,
2013-06-15 14:22:00,57.0,-99.9,-100.00,West,270,13.0,16.0,-999,-99.99,,,-99.99,,2013-06-15 21:22:00,
2013-06-15 14:34:00,57.0,-99.9,-100.00,West,270,13.0,16.0,-999,-99.99,,,-99.99,,2013-06-15 21:34:00,
2013-06-15 14:43:00,57.0,-99.9,-100.00,West,270,12.0,15.0,-999,-99.99,,,-99.99,,2013-06-15 21:43:00,
2013-06-15 14:53:00,57.0,-99.9,-100.00,West,270,12.0,15.0,-999,-99.99,,,-99.99,,2013-06-15 21:53:00,
2013-06-15 15:02:00,57.0,-99.9,-100.00,West,270,12.0,15.0,-999,-99.99,,,-99.99,,2013-06-15 22:02:00,
2013-06-15 15:11:00,57.0,-99.9,-100.00,West,270,12.0,15.0,-999,-99.99,,,-99.99,,2013-06-15 22:11:00,
2013-06-15 15:22:00,57.0,-99.9,-100.00,West,270,11.0,14.0,-999,-99.99,,,-99.99,,2013-06-15 22:22:00,
2013-06-15 15:33:00,57.0,-99.9,-100.00,West,270,10.0,13.0,-999,-99.99,,,-99.99,,2013-06-15 22:33:00,
2013-06-15 15:43:00,57.0,-99.9,-100.00,West,270,10.0,13.0,-999,-99.99,,,-99.99,,2013-06-15 22:43:00,
2013-06-15 15:54:00,57.0,-99.9,-100.00,West,270,9.0,12.0,-999,-99.99,,,-99.99,,2013-06-15 22:54:00,
2013-06-15 16:02:00,57.0,-99.9,-100.00,West,270,9.0,11.0,-999,-99.99,,,-99.99,,2013-06-15 23:02:00,
2013-06-15 16:12:00,57.0,-99.9,-100.00,West,270,9.0,11.0,-999,-99.99,,,-99.99,,2013-06-15 23:12:00,
2013-06-15 16:22:00,57.0,-99.9,-100.00,West,270,8.0,11.0,-999,-99.99,,,-99.99,,2013-06-15 23:22:00,
2013-06-15 16:33:00,57.0,-99.9,-100.00,West,270,8.0,11.0,-999,-99.99,,,-99.99,,2013-06-15 23:33:00,
2013-06-15 16:43:00,56.0,-99.9,-100.00,NW,315,7.0,11.0,-999,-99.99,,,-99.99,,2013-06-15 23:43:00,
2013-06-15 16:53:00,57.0,-99.9,-100.00,NW,315,7.0,9.0,-999,-99.99,,,-99.99,,2013-06-15 23:53:00,
2013-06-15 17:02:00,57.0,-99.9,-100.00,West,270,7.0,9.0,-999,-99.99,,,-99.99,,2013-06-16 00:02:00,
2013-06-15 17:12:00,57.0,-99.9,-100.00,West,270,7.0,9.0,-999,-99.99,,,-99.99,,2013-06-16 00:12:00,
2013-06-15 17:22:00,56.0,-99.9,-100.00,West,270,8.0,9.0,-999,-99.99,,,-99.99,,2013-06-16 00:22:00,
2013-06-15 17:34:00,56.0,-99.9,-100.00,West,270,7.0,9.0,-999,-99.99,,,-99.99,,2013-06-16 00:34:00,
2013-06-15 17:43:00,56.0,-99.9,-100.00,West,270,7.0,9.0,-999,-99.99,,,-99.99,,2013-06-16 00:43:00,
2013-06-15 17:53:00,56.0,-99.9,-100.00,West,270,8.0,9.0,-999,-99.99,,,-99.99,,2013-06-16 00:53:00,
2013-06-15 18:02:00,56.0,-99.9,-100.00,West,270,8.0,9.0,-999,-99.99,,,-99.99,,2013-06-16 01:02:00,
2013-06-15 18:12:00,56.0,-99.9,-100.00,West,270,8.0,9.0,-999,-99.99,,,-99.99,,2013-06-16 01:12:00,
2013-06-15 18:22:00,56.0,-99.9,-100.00,West,270,8.0,9.0,-999,-99.99,,,-99.99,,2013-06-16 01:22:00,
2013-06-15 18:33:00,56.0,-99.9,-100.00,NW,315,5.0,9.0,-999,-99.99,,,-99.99,,2013-06-16 01:33:00,
2013-06-15 18:43:00,56.0,-99.9,-100.00,NW,315,4.0,8.0,-999,-99.99,,,-99.99,,2013-06-16 01:43:00,
2013-06-15 18:53:00,57.0,-99.9,-100.00,NW,315,7.0,7.0,-999,-99.99,,,-99.99,,2013-06-16 01:53:00,
2013-06-15 19:02:00,57.0,-99.9,-100.00,NW,315,5.0,7.0,-999,-99.99,,,-99.99,,2013-06-16 02:02:00,
2013-06-15 19:12:00,57.0,-99.9,-100.00,NW,315,5.0,7.0,-999,-99.99,,,-99.99,,2013-06-16 02:12:00,
2013-06-15 19:22:00,58.0,-99.9,-100.00,NW,315,6.0,9.0,-999,-99.99,,,-99.99,,2013-06-16 02:22:00,
2013-06-15 19:33:00,58.0,-99.9,-100.00,NW,315,6.0,9.0,-999,-99.99,,,-99.99,,2013-06-16 02:33:00,
2013-06-15 19:43:00,58.0,-99.9,-100.00,NW,315,6.0,9.0,-999,-99.99,,,-99.99,,2013-06-16 02:43:00,
2013-06-15 19:53:00,57.0,-99.9,-100.00,West,270,5.0,8.0,-999,-99.99,,,-99.99,,2013-06-16 02:53:00,
2013-06-15 20:02:00,57.0,-99.9,-100.00,NW,315,3.0,7.0,-999,-99.99,,,-99.99,,2013-06-16 03:02:00,
2013-06-15 20:12:00,57.0,-99.9,-100.00,NW,315,3.0,7.0,-999,-99.99,,,-99.99,,2013-06-16 03:12:00,
2013-06-15 20:22:00,57.0,-99.9,-100.00,NW,315,3.0,6.0,-999,-99.99,,,-99.99,,2013-06-16 03:22:00,
2013-06-15 20:34:00,57.0,-99.9,-100.00,NW,315,3.0,6.0,-999,-99.99,,,-99.99,,2013-06-16 03:34:00,
2013-06-15 20:43:00,57.0,-99.9,-100.00,South,180,3.0,6.0,-999,-99.99,,,-99.99,,2013-06-16 03:43:00,
2013-06-15 20:53:00,57.0,-99.9,-100.00,NW,315,1.0,6.0,-999,-99.99,,,-99.99,,2013-06-16 03:53:00,
2013-06-15 21:02:00,57.0,-99.9,-100.00,NW,315,2.0,4.0,-999,-99.99,,,-99.99,,2013-06-16 04:02:00,
2013-06-15 21:12:00,57.0,-99.9,-100.00,NW,315,2.0,4.0,-999,-99.99,,,-99.99,,2013-06-16 04:12:00,
2013-06-15 21:23:00,57.0,-99.9,-100.00,West,270,2.0,4.0,-999,-99.99,,,-99.99,,2013-06-16 04:23:00,
2013-06-15 21:34:00,57.0,-99.9,-100.00,West,270,3.0,7.0,-999,-99.99,,,-99.99,,2013-06-16 04:34:00,
2013-06-15 21:43:00,57.0,-99.9,-100.00,West,270,3.0,7.0,-999,-99.99,,,-99.99,,2013-06-16 04:43:00,
2013-06-15 21:53:00,57.0,-99.9,-100.00,West,270,1.0,7.0,-999,-99.99,,,-99.99,,2013-06-16 04:53:00,
2013-06-15 22:02:00,57.0,-99.9,-100.00,South,180,2.0,5.0,-999,-99.99,,,-99.99,,2013-06-16 05:02:00,
2013-06-15 22:12:00,57.0,-99.9,-100.00,South,180,2.0,5.0,-999,-99.99,,,-99.99,,2013-06-16 05:12:00,
2013-06-15 22:22:00,56.0,-99.9,-100.00,West,270,4.0,5.0,-999,-99.99,,,-99.99,,2013-06-16 05:22:00,
2013-06-15 22:34:00,56.0,-99.9,-100.00,West,270,4.0,4.0,-999,-99.99,,,-99.99,,2013-06-16 05:34:00,
2013-06-15 22:43:00,56.0,-99.9,-100.00,West,270,4.0,4.0,-999,-99.99,,,-99.99,,2013-06-16 05:43:00,
2013-06-15 22:53:00,56.0,-99.9,-100.00,West,270,4.0,6.0,-999,-99.99,,,-99.99,,2013-06-16 05:53:00,
2013-06-15 23:02:00,56.0,-99.9,-100.00,NW,315,2.0,6.0,-999,-99.99,,,-99.99,,2013-06-16 06:02:00,
2013-06-15 23:12:00,56.0,-99.9,-100.00,NW,315,2.0,6.0,-999,-99.99,,,-99.99,,2013-06-16 06:12:00,
2013-06-15 23:23:00,56.0,-99.9,-100.00,West,270,3.0,6.0,-999,-99.99,,,-99.99,,2013-06-16 06:23:00,
2013-06-15 23:33:00,56.0,-99.9,-100.00,West,270,3.0,6.0,-999,-99.99,,,-99.99,,2013-06-16 06:33:00,
2013-06-15 23:43:00,56.0,-99.9,-100.00,West,270,3.0,6.0,-999,-99.99,,,-99.99,,2013-06-16 06:43:00,
2013-06-15 23:52:00,56.0,-99.9,-100.00,West,270,3.0,4.0,-999,-99.99,,,-99.99,,2013-06-16 06:52:00,